FW3224 Weather Reports


time (UTC)temp
F
wind
direction
speed
knots
gust
knots
rain 1hr
in
rain 24hr
in
rain mn
in
humidity
%
barometer
mb
20260905203027 62 244 2.6 8.7 0.00 0.00 0.00 49 1013.6
20260905202527 62 235 5.2 8.7 0.00 0.00 0.00 50 1013.4
20260905202025 62 261 4.3 8.7 0.00 0.00 0.00 50 1013.5
20260905201523 62 250 3.5 8.7 0.00 0.00 0.00 49 1013.5
20260905201021 63 235 4.3 9.6 0.00 0.00 0.00 47 1013.3
20260905200527 63 229 3.5 12.2 0.00 0.00 0.00 45 1013.1
20260905200026 63 240 5.2 13.0 0.00 0.00 0.00 44 1012.9
20260905195518 64 273 4.3 13.0 0.00 0.00 0.00 43 1012.9
20260905195018 64 227 4.3 14.8 0.00 0.00 0.00 43 1013.1
20260905194519 64 219 4.3 11.3 0.00 0.00 0.00 43 1013.1
20260905194016 64 261 6.1 13.0 0.00 0.00 0.00 43 1013.0
20260905193514 64 261 6.1 13.0 0.00 0.00 0.00 43 1012.7
20260905193014 64 253 4.3 14.8 0.00 0.00 0.00 44 1012.5
20260905192512 65 246 6.1 21.7 0.00 0.00 0.00 43 1012.4
20260905192011 64 281 7.0 14.8 0.00 0.00 0.00 47 1012.0
20260905191509 64 269 4.3 15.6 0.00 0.00 0.00 48 1011.7
20260905191008 65 256 6.1 15.6 0.00 0.00 0.00 47 1011.4
20260905190507 65 246 7.8 13.9 0.00 0.00 0.00 46 1011.2
20260905190006 65 298 6.1 15.6 0.00 0.00 0.00 45 1011.1
20260905185504 66 213 7.8 20.0 0.00 0.00 0.00 42 1011.2
20260905185003 66 273 8.7 20.0 0.00 0.00 0.00 42 1010.9
20260905184506 66 240 7.0 15.6 0.00 0.00 0.00 42 1011.0
20260905184002 66 233 7.0 14.8 0.00 0.00 0.00 44 1011.0
20260905183503 66 288 7.0 13.0 0.00 0.00 0.00 48 1010.8
20260905183101 66 257 5.2 9.6 0.00 0.00 0.00 51 1010.7
20260905182559 66 245 5.2 14.8 0.00 0.00 0.00 50 1010.7
20260905182058 66 284 6.1 14.8 0.00 0.00 0.00 49 1010.8
20260905181557 66 238 4.3 11.3 0.00 0.00 0.00 48 1010.9
20260905181055 67 201 4.3 11.3 0.00 0.00 0.00 48 1010.9
20260905180556 67 207 4.3 14.8 0.00 0.00 0.00 48 1011.1
20260905175552 68 317 3.5 8.7 0.00 0.00 0.00 48 1011.3
20260905175054 68 242 3.5 9.6 0.00 0.00 0.00 49 1011.1
20260905174549 68 249 2.6 8.7 0.00 0.00 0.00 49 1011.1
20260905174049 68 257 3.5 9.6 0.00 0.00 0.00 49 1011.1
20260905173548 68 242 2.6 15.6 0.00 0.00 0.00 49 1011.0
20260905173149 69 252 4.3 15.6 0.00 0.00 0.00 49 1010.8
20260905172545 69 204 6.1 14.8 0.00 0.00 0.00 50 1010.7
20260905172045 69 261 6.1 20.0 0.00 0.00 0.00 49 1010.5
20260905171545 69 245 8.7 22.6 0.00 0.00 0.00 49 1010.5
20260905171042 69 242 8.7 22.6 0.00 0.00 0.00 51 1010.5
20260905170541 69 243 4.3 9.6 0.00 0.00 0.00 55 1010.4
20260905170044 70 236 4.3 14.8 0.00 0.00 0.00 55 1010.4
20260905165539 70 234 7.0 14.8 0.00 0.00 0.00 54 1010.3
20260905165039 70 227 4.3 13.9 0.00 0.00 0.00 55 1010.2
20260905164537 70 189 5.2 13.9 0.00 0.00 0.00 56 1010.1
20260905164037 70 195 4.3 13.0 0.00 0.00 0.00 56 1010.1
20260905163538 70 187 2.6 9.6 0.00 0.00 0.00 57 1010.0
20260905163035 70 188 2.6 9.6 0.00 0.00 0.00 56 1010.0
20260905162534 70 245 4.3 12.2 0.00 0.00 0.00 56 1009.9
20260905162033 70 220 3.5 12.2 0.00 0.00 0.00 57 1009.9
20260905161534 70 236 4.3 11.3 0.00 0.00 0.00 56 1009.9
20260905161031 70 207 5.2 11.3 0.00 0.00 0.00 56 1009.8
20260905160530 70 227 5.2 9.6 0.00 0.00 0.00 57 1009.8
20260905160028 70 224 4.3 9.6 0.00 0.00 0.00 57 1009.6
20260905155530 71 251 4.3 10.4 0.00 0.00 0.00 56 1009.5
20260905155026 71 267 5.2 10.4 0.00 0.00 0.00 56 1009.4
20260905154526 71 227 3.5 11.3 0.00 0.00 0.00 56 1009.4
20260905154032 71 238 4.3 11.3 0.00 0.00 0.00 56 1009.4
20260905153525 71 207 3.5 10.4 0.00 0.00 0.00 56 1009.3
20260905153025 71 279 5.2 10.4 0.00 0.00 0.00 56 1009.2
20260905152525 71 288 3.5 10.4 0.00 0.00 0.00 56 1009.2
20260905152022 71 238 4.3 10.4 0.00 0.00 0.00 56 1009.2
20260905151522 71 277 5.2 9.6 0.00 0.00 0.00 56 1009.2
20260905151020 71 288 4.3 7.8 0.00 0.00 0.00 57 1009.3
20260905150523 71 244 4.3 12.2 0.00 0.00 0.00 56 1009.2
20260905150020 71 257 5.2 12.2 0.00 0.00 0.00 56 1009.3
20260905145519 71 281 7.0 13.0 0.00 0.00 0.00 56 1009.2
20260905145019 71 266 3.5 12.2 0.00 0.00 0.00 57 1009.2
20260905144523 71 237 4.3 12.2 0.00 0.00 0.00 57 1009.2
20260905144017 71 254 3.5 6.1 0.00 0.00 0.00 56 1009.1
20260905143516 72 231 1.7 7.8 0.00 0.00 0.00 55 1009.2
20260905143018 72 246 3.5 8.7 0.00 0.00 0.00 55 1009.1
20260905142515 72 241 4.3 8.7 0.00 0.00 0.00 55 1009.1
20260905142014 72 298 3.5 8.7 0.00 0.00 0.00 55 1008.9
20260905141512 72 271 2.6 7.0 0.00 0.00 0.00 56 1008.9
20260905141013 72 275 3.5 11.3 0.00 0.00 0.00 56 1008.7
20260905140513 71 290 6.1 11.3 0.00 0.00 0.00 56 1008.7
20260905140009 71 285 4.3 8.7 0.00 0.00 0.00 57 1008.6
20260905135509 71 279 4.3 8.7 0.00 0.00 0.00 58 1008.6
20260905135008 71 288 4.3 8.7 0.00 0.00 0.00 59 1008.5
20260905134508 71 281 3.5 8.7 0.00 0.00 0.00 59 1008.5
20260905134008 71 271 1.7 7.0 0.00 0.00 0.00 59 1008.4
20260905133508 71 297 2.6 7.0 0.00 0.00 0.00 58 1008.4
20260905133008 72 277 2.6 7.8 0.00 0.00 0.00 58 1008.5
20260905132508 72 281 4.3 8.7 0.00 0.00 0.00 57 1008.3
20260905132008 72 281 2.6 8.7 0.00 0.00 0.00 57 1008.3
20260905131508 72 259 2.6 11.3 0.00 0.00 0.00 57 1008.6
20260905131010 72 293 5.2 11.3 0.00 0.00 0.00 57 1008.6
20260905130507 72 275 2.6 8.7 0.00 0.00 0.00 57 1008.6
20260905130007 72 311 2.6 7.0 0.00 0.00 0.00 57 1008.5
20260905125507 72 287 1.7 11.3 0.00 0.00 0.00 57 1008.4
20260905125007 72 300 5.2 11.3 0.00 0.00 0.00 57 1008.4
20260905124506 72 289 5.2 10.4 0.00 0.00 0.00 57 1008.4
20260905124007 72 280 6.1 13.0 0.00 0.00 0.00 57 1008.4
20260905123507 72 238 5.2 12.2 0.00 0.00 0.00 57 1008.4
20260905123006 72 270 6.1 13.0 0.00 0.00 0.00 58 1008.4
20260905122507 72 257 5.2 13.0 0.00 0.00 0.00 58 1008.4
20260905122005 72 305 5.2 15.6 0.00 0.00 0.00 57 1008.4
20260905121504 72 229 7.0 13.0 0.00 0.00 0.00 57 1008.5
20260905121004 72 226 7.0 13.0 0.00 0.00 0.00 57 1008.4
20260905120508 72 292 7.0 13.0 0.00 0.00 0.00 58 1008.4
20260905120004 73 282 6.1 13.0 0.00 0.00 0.00 57 1008.4
20260905115504 73 257 7.0 13.9 0.00 0.00 0.00 57 1008.4
20260905115007 73 284 5.2 13.9 0.00 0.00 0.00 57 1008.3
20260905114504 73 282 5.2 16.5 0.00 0.00 0.00 57 1008.4
20260905114004 73 275 7.8 16.5 0.00 0.00 0.00 57 1008.3
20260905113504 73 257 7.0 15.6 0.00 0.00 0.00 56 1008.4
20260905113004 73 257 7.0 13.9 0.00 0.00 0.00 56 1008.4
20260905112503 73 264 7.8 17.4 0.00 0.00 0.00 56 1008.3
20260905112004 74 252 7.8 18.2 0.00 0.00 0.00 55 1008.6
20260905111505 74 281 11.3 18.2 0.00 0.00 0.00 54 1008.6
20260905111003 74 284 8.7 16.5 0.00 0.00 0.00 54 1008.6
20260905110502 74 288 8.7 17.4 0.00 0.00 0.00 53 1008.8
20260905110002 75 274 10.4 20.0 0.00 0.00 0.00 52 1008.7
20260905105502 75 295 10.4 20.0 0.00 0.00 0.00 52 1008.7
20260905105002 75 240 8.7 22.6 0.00 0.00 0.00 52 1008.7
20260905104501 75 280 10.4 22.6 0.00 0.00 0.00 52 1008.8
20260905104004 74 279 8.7 19.1 0.00 0.00 0.00 53 1008.8
20260905103505 75 274 8.7 22.6 0.00 0.00 0.00 53 1008.9
20260905103006 75 264 8.7 22.6 0.00 0.00 0.00 53 1008.8
20260905102501 75 263 9.6 17.4 0.00 0.00 0.00 52 1008.8
20260905102001 75 249 7.0 17.4 0.00 0.00 0.00 53 1008.9
20260905101607 75 254 7.8 19.1 0.00 0.00 0.00 53 1009.0
20260905101502 75 236 8.7 19.1 0.00 0.00 0.00 52 1009.0
20260905101100 74 270 12.2 19.1 0.00 0.00 0.00 53 1009.1
20260905100600 75 262 9.6 24.3 0.00 0.00 0.00 54 1009.6
20260905100201 75 287 13.9 24.3 0.00 0.00 0.00 53 1010.1
20260905095559 75 248 8.7 21.7 0.00 0.00 0.00 52 1010.2
20260905095059 75 289 9.6 21.7 0.00 0.00 0.00 52 1010.2
20260905094559 75 238 11.3 21.7 0.00 0.00 0.00 54 1010.5
20260905094058 74 289 6.1 14.8 0.00 0.00 0.00 56 1010.6
20260905093558 74 263 7.8 14.8 0.00 0.00 0.00 56 1010.6
20260905093059 74 285 7.8 14.8 0.00 0.00 0.00 56 1010.8
20260905092601 74 237 7.0 15.6 0.00 0.00 0.00 57 1010.9
20260905092058 74 293 8.7 15.6 0.00 0.00 0.00 57 1010.7
20260905091606 74 227 7.8 14.8 0.00 0.00 0.00 58 1010.8
20260905091100 74 267 6.1 20.9 0.00 0.00 0.00 58 1010.5
20260905090601 74 287 7.0 22.6 0.00 0.00 0.00 58 1010.4
20260905090057 75 256 8.7 22.6 0.00 0.00 0.00 57 1010.6
20260905085557 74 252 9.6 16.5 0.00 0.00 0.00 56 1010.4
20260905085057 74 287 7.0 16.5 0.00 0.00 0.00 57 1010.5
20260905084600 75 248 7.8 15.6 0.00 0.00 0.00 56 1010.6
20260905084057 74 259 6.1 18.2 0.00 0.00 0.00 58 1010.5
20260905083557 75 276 8.7 18.2 0.00 0.00 0.00 56 1010.5
20260905083109 75 285 3.5 11.3 0.00 0.00 0.00 54 1010.3
20260905082556 76 249 4.3 10.4 0.00 0.00 0.00 53 1010.0
20260905082056 76 159 4.3 12.2 0.00 0.00 0.00 53 1009.8
20260905081555 77 225 2.6 12.2 0.00 0.00 0.00 51 1009.7
20260905081055 77 200 3.5 12.2 0.00 0.00 0.00 50 1009.9
20260905080555 77 85 4.3 17.4 0.00 0.00 0.00 50 1009.8
20260905080055 77 272 6.1 17.4 0.00 0.00 0.00 49 1009.7
20260905075556 77 186 7.0 17.4 0.00 0.00 0.00 49 1009.7
20260905075054 78 150 8.7 15.6 0.00 0.00 0.00 47 1009.6
20260905074555 80 236 5.2 20.0 0.00 0.00 0.00 45 1009.4
20260905074057 82 165 7.0 18.2 0.00 0.00 0.00 41 1009.3
20260905073554 84 224 3.5 11.3 0.00 0.00 0.00 34 1008.4
20260905073057 84 275 6.1 11.3 0.00 0.00 0.00 33 1007.7
20260905072558 84 274 5.2 13.0 0.00 0.00 0.00 33 1007.6
20260905072057 84 264 4.3 15.6 0.00 0.00 0.00 33 1007.5
20260905071555 85 246 7.0 15.6 0.00 0.00 0.00 33 1007.4
20260905071053 85 275 7.0 19.1 0.00 0.00 0.00 32 1007.3
20260905070553 85 268 9.6 19.1 0.00 0.00 0.00 32 1007.3
20260905070054 85 286 7.8 13.9 0.00 0.00 0.00 32 1007.2
20260905065552 85 252 6.1 13.9 0.00 0.00 0.00 32 1007.1
20260905065052 86 300 4.3 16.5 0.00 0.00 0.00 32 1007.0
20260905064611 86 262 7.0 20.0 0.00 0.00 0.00 32 1007.0
20260905064052 86 249 11.3 23.5 0.00 0.00 0.00 31 1006.8
20260905063551 86 261 9.6 23.5 0.00 0.00 0.00 31 1006.6
20260905063054 86 302 9.6 26.1 0.00 0.00 0.00 31 1006.6
20260905062551 86 247 13.0 26.1 0.00 0.00 0.00 31 1006.6
20260905062051 86 242 12.2 26.1 0.00 0.00 0.00 31 1006.6
20260905061551 86 284 9.6 26.1 0.00 0.00 0.00 31 1006.7
20260905061050 86 263 14.8 26.1 0.00 0.00 0.00 31 1006.6
20260905060553 86 250 10.4 20.9 0.00 0.00 0.00 31 1006.6
20260905060051 87 273 9.6 20.9 0.00 0.00 0.00 31 1006.7
20260905055551 87 220 8.7 15.6 0.00 0.00 0.00 31 1006.5
20260905055050 87 268 9.6 22.6 0.00 0.00 0.00 31 1006.4
20260905054644 86 217 11.3 22.6 0.00 0.00 0.00 31 1006.5
20260905054050 87 261 10.4 21.7 0.00 0.00 0.00 30 1006.5
20260905053550 87 297 10.4 22.6 0.00 0.00 0.00 30 1006.5
20260905053050 87 257 12.2 22.6 0.00 0.00 0.00 30 1006.5
20260905052549 87 287 10.4 20.0 0.00 0.00 0.00 30 1006.6
20260905052049 87 241 9.6 20.0 0.00 0.00 0.00 30 1006.6
20260905051548 87 309 9.6 16.5 0.00 0.00 0.00 30 1006.7
20260905051047 87 272 7.8 24.3 0.00 0.00 0.00 30 1006.7
20260905050547 87 242 8.7 24.3 0.00 0.00 0.00 30 1006.8
20260905050047 87 265 8.7 22.6 0.00 0.00 0.00 30 1006.9
20260905045546 87 253 10.4 22.6 0.00 0.00 0.00 30 1006.8
20260905045046 87 241 9.6 22.6 0.00 0.00 0.00 30 1007.0
20260905044602 87 259 9.6 22.6 0.00 0.00 0.00 30 1006.9
20260905044045 87 260 13.0 22.6 0.00 0.00 0.00 29 1007.0
20260905043545 87 234 11.3 21.7 0.00 0.00 0.00 30 1007.1
20260905043044 88 250 7.0 20.9 0.00 0.00 0.00 30 1007.1
20260905042543 87 256 12.2 20.9 0.00 0.00 0.00 29 1007.3
20260905042043 88 272 9.6 21.7 0.00 0.00 0.00 30 1007.4
20260905041542 87 260 8.7 21.7 0.00 0.00 0.00 30 1007.5
20260905041041 88 265 9.6 19.1 0.00 0.00 0.00 30 1007.5
20260905040542 88 247 7.0 17.4 0.00 0.00 0.00 31 1007.7
20260905040040 88 227 7.0 17.4 0.00 0.00 0.00 31 1007.8
20260905035538 87 238 4.3 15.6 0.00 0.00 0.00 33 1007.8
20260905035037 86 248 8.7 20.0 0.00 0.00 0.00 33 1007.9
20260905034536 86 292 9.6 20.0 0.00 0.00 0.00 34 1008.2
20260905034035 85 236 7.0 12.2 0.00 0.00 0.00 36 1008.2
20260905033533 85 284 3.5 11.3 0.00 0.00 0.00 37 1008.4
20260905033038 84 275 6.1 12.2 0.00 0.00 0.00 36 1008.5
20260905032531 84 248 4.3 12.2 0.00 0.00 0.00 37 1008.8
20260905032029 84 257 3.5 10.4 0.00 0.00 0.00 39 1008.9
20260905031530 84 338 1.7 8.7 0.00 0.00 0.00 40 1009.0
20260905031028 84 290 2.6 8.7 0.00 0.00 0.00 39 1009.2
20260905030526 83 257 1.7 9.6 0.00 0.00 0.00 38 1009.3
20260905030032 83 331 3.5 9.6 0.00 0.00 0.00 38 1009.5
20260905025523 83 355 3.5 10.4 0.00 0.00 0.00 38 1009.7
20260905025022 83 267 4.3 10.4 0.00 0.00 0.00 37 1009.9
20260905024520 83 351 1.7 9.6 0.00 0.00 0.00 38 1010.1
20260905024019 82 299 3.5 10.4 0.00 0.00 0.00 38 1010.3
20260905023518 81 321 4.3 13.9 0.00 0.00 0.00 38 1010.4
20260905023017 82 292 5.2 13.9 0.00 0.00 0.00 37 1010.5
20260905022515 82 304 3.5 9.6 0.00 0.00 0.00 37 1010.7
20260905022015 82 311 5.2 8.7 0.00 0.00 0.00 37 1010.9
20260905021512 81 300 4.3 12.2 0.00 0.00 0.00 37 1011.0
20260905021011 81 308 5.2 12.2 0.00 0.00 0.00 37 1011.2
20260905020510 81 317 6.1 13.0 0.00 0.00 0.00 37 1011.3
20260905020010 81 277 7.0 15.6 0.00 0.00 0.00 37 1011.3
20260905015511 81 280 5.2 11.3 0.00 0.00 0.00 36 1011.5
20260905015008 81 262 4.3 11.3 0.00 0.00 0.00 37 1011.5
20260905014506 81 323 4.3 11.3 0.00 0.00 0.00 37 1011.7
20260905014006 81 263 3.5 11.3 0.00 0.00 0.00 38 1011.8
20260905013504 80 288 4.3 10.4 0.00 0.00 0.00 38 1011.8
20260905013004 80 304 4.3 11.3 0.00 0.00 0.00 38 1012.0
20260905012604 80 261 5.2 11.3 0.00 0.00 0.00 38 1012.0
20260905012100 80 252 5.2 11.3 0.00 0.00 0.00 38 1012.2
20260905011558 79 275 4.3 14.8 0.00 0.00 0.00 38 1012.4
20260905011100 79 305 5.2 14.8 0.00 0.00 0.00 37 1012.5
20260905010555 79 213 3.5 7.8 0.00 0.00 0.00 39 1012.7
20260905005552 77 297 6.1 12.2 0.00 0.00 0.00 40 1013.1
20260905005052 77 267 5.2 10.4 0.00 0.00 0.00 40 1013.1
20260905004550 77 273 5.2 9.6 0.00 0.00 0.00 40 1013.3
20260905004048 76 238 5.2 11.3 0.00 0.00 0.00 41 1013.5
20260905003547 76 258 3.5 12.2 0.00 0.00 0.00 41 1013.7
20260905003046 76 297 5.2 8.7 0.00 0.00 0.00 41 1013.8
20260905002545 76 279 4.3 8.7 0.00 0.00 0.00 42 1013.9
20260905002043 75 274 3.5 11.3 0.00 0.00 0.00 42 1014.0
20260905001542 75 264 4.3 9.6 0.00 0.00 0.00 41 1014.0
20260905001041 75 259 4.3 9.6 0.00 0.00 0.00 41 1014.1
20260905000542 75 303 3.5 11.3 0.00 0.00 0.00 41 1014.3
20260905000037 75 232 4.3 11.3 0.00 0.00 0.00 40 1014.4
20260904235535 74 250 2.6 8.7 0.00 0.00 0.00 42 1014.4
20260904235034 74 264 4.3 8.7 0.00 0.00 0.00 43 1014.5
20260904234533 74 275 3.5 11.3 0.00 0.00 0.00 43 1014.7
20260904234036 73 255 5.2 11.3 0.00 0.00 0.00 43 1014.8
20260904233530 73 227 6.1 11.3 0.00 0.00 0.00 44 1014.9
20260904233029 73 284 2.6 7.0 0.00 0.00 0.00 48 1014.9
20260904232528 72 267 3.5 7.0 0.00 0.00 0.00 47 1015.0
20260904232025 71 273 2.6 7.0 0.00 0.00 0.00 49 1015.1
20260904231524 71 319 2.6 7.8 0.00 0.00 0.00 51 1015.2
20260904231023 70 257 3.5 7.8 0.00 0.00 0.00 52 1015.3
20260904230524 70 291 2.6 7.8 0.00 0.00 0.00 52 1015.4
20260904230020 70 238 3.5 7.8 0.00 0.00 0.00 51 1015.5
20260904225521 70 302 3.5 7.8 0.00 0.00 0.00 51 1015.5
20260904225019 70 290 1.7 7.8 0.00 0.00 0.00 51 1015.6
20260904224520 69 281 2.6 7.8 0.00 0.00 0.00 50 1015.6
20260904224018 69 304 3.5 7.8 0.00 0.00 0.00 51 1015.7
20260904223516 69 279 2.6 6.1 0.00 0.00 0.00 51 1015.7
20260904223016 69 275 3.5 6.1 0.00 0.00 0.00 51 1015.7
20260904222515 69 297 1.7 7.0 0.00 0.00 0.00 52 1015.7
20260904222015 69 246 2.6 7.0 0.00 0.00 0.00 52 1015.7
20260904221514 68 276 0.0 5.2 0.00 0.00 0.00 53 1015.7
20260904221013 68 319 0.9 5.2 0.00 0.00 0.00 54 1015.7
20260904220512 68 292 1.7 4.3 0.00 0.00 0.00 54 1015.7
20260904220011 68 296 1.7 5.2 0.00 0.00 0.00 54 1015.9
20260904215510 67 271 1.7 5.2 0.00 0.00 0.00 54 1015.9
20260904215010 67 282 1.7 6.1 0.00 0.00 0.00 54 1016.0
20260904214510 67 263 2.6 7.0 0.00 0.00 0.00 54 1016.0
20260904214010 67 298 3.5 9.6 0.00 0.00 0.00 52 1016.0
20260904213510 67 288 3.5 9.6 0.00 0.00 0.00 52 1016.0
20260904213009 67 279 3.5 8.7 0.00 0.00 0.00 52 1015.9
20260904212509 67 307 2.6 9.6 0.00 0.00 0.00 52 1015.7
20260904212007 67 290 2.6 9.6 0.00 0.00 0.00 52 1015.7
20260904211508 67 286 2.6 7.8 0.00 0.00 0.00 52 1015.8
20260904211008 66 269 3.5 9.6 0.00 0.00 0.00 52 1015.8
20260904210505 66 251 3.5 8.7 0.00 0.00 0.00 53 1015.7
20260904210010 66 265 3.5 8.7 0.00 0.00 0.00 53 1015.7
20260904205504 66 275 4.3 8.7 0.00 0.00 0.00 53 1015.6
20260904205002 66 232 4.3 8.7 0.00 0.00 0.00 53 1015.7
20260904204501 66 279 5.2 9.6 0.00 0.00 0.00 53 1015.7
20260904204100 65 238 3.5 10.4 0.00 0.00 0.00 54 1015.6
20260904203559 65 296 5.2 10.4 0.00 0.00 0.00 54 1015.5